| time (UTC) | temp F | wind direction | speed MPH | gust MPH | rain 1hr in | rain 24hr in | rain mn in | humidity % | barometer mb |
| 20260905154512 | 71 | 110 | 4.0 | 9.0 | 0.00 | 0.00 | 0.00 | 92 | 1018.8 |
| 20260905153017 | 71 | 137 | 1.0 | 6.0 | 0.00 | 0.00 | 0.00 | 94 | 1018.7 |
| 20260905151510 | 70 | 26 | 1.0 | 8.0 | 0.00 | 0.00 | 0.00 | 94 | 1018.7 |
| 20260905150014 | 70 | 83 | 1.0 | 12.0 | 0.00 | 0.00 | 0.00 | 95 | 1018.3 |
| 20260905144523 | 69 | 44 | 3.0 | 11.0 | 0.00 | 0.00 | 0.00 | 95 | 1018.0 |
| 20260905143018 | 69 | 79 | 4.0 | 10.0 | 0.00 | 0.00 | 0.00 | 95 | 1018.1 |
| 20260905141510 | 69 | 66 | 2.0 | 7.0 | 0.00 | 0.00 | 0.00 | 95 | 1018.1 |
| 20260905140013 | 68 | 44 | 3.0 | 9.0 | 0.00 | 0.00 | 0.00 | 95 | 1018.1 |
| 20260905134529 | 68 | 36 | 2.0 | 8.0 | 0.00 | 0.00 | 0.00 | 95 | 1018.2 |
| 20260905133027 | 68 | 44 | 2.0 | 8.0 | 0.00 | 0.00 | 0.00 | 95 | 1018.2 |
| 20260905131514 | 68 | 22 | 1.0 | 6.0 | 0.00 | 0.00 | 0.00 | 95 | 1018.1 |
| 20260905130022 | 67 | 55 | 3.0 | 8.0 | 0.00 | 0.00 | 0.00 | 95 | 1017.9 |
| 20260905124517 | 67 | 70 | 2.0 | 8.0 | 0.00 | 0.00 | 0.00 | 95 | 1017.3 |
| 20260905123008 | 67 | 36 | 2.0 | 6.0 | 0.00 | 0.00 | 0.00 | 95 | 1016.7 |
| 20260905121510 | 67 | 46 | 3.0 | 8.0 | 0.00 | 0.00 | 0.00 | 95 | 1016.8 |
| 20260905120009 | 67 | 74 | 5.0 | 8.0 | 0.00 | 0.00 | 0.00 | 95 | 1017.1 |
| 20260905114504 | 67 | 51 | 3.0 | 7.0 | 0.00 | 0.00 | 0.00 | 95 | 1016.9 |
| 20260905113012 | 67 | 63 | 5.0 | 11.0 | 0.00 | 0.00 | 0.00 | 95 | 1016.7 |
| 20260905111521 | 67 | 93 | 6.0 | 12.0 | 0.00 | 0.00 | 0.00 | 94 | 1016.6 |
| 20260905110023 | 67 | 88 | 5.0 | 10.0 | 0.00 | 0.00 | 0.00 | 94 | 1016.7 |
| 20260905104508 | 67 | 53 | 4.0 | 11.0 | 0.00 | 0.00 | 0.00 | 94 | 1016.6 |
| 20260905103018 | 67 | 39 | 4.0 | 11.0 | 0.00 | 0.00 | 0.00 | 94 | 1016.5 |
| 20260905101509 | 67 | 49 | 5.0 | 12.0 | 0.00 | 0.00 | 0.00 | 94 | 1016.4 |
| 20260905100028 | 67 | 53 | 4.0 | 11.0 | 0.00 | 0.00 | 0.00 | 94 | 1016.2 |
| 20260905094510 | 67 | 49 | 8.0 | 15.0 | 0.00 | 0.00 | 0.00 | 94 | 1015.8 |
| 20260905093016 | 66 | 47 | 3.0 | 10.0 | 0.00 | 0.00 | 0.00 | 94 | 1015.6 |
| 20260905091550 | 66 | 80 | 4.0 | 10.0 | 0.00 | 0.00 | 0.00 | 94 | 1015.8 |
| 20260905090017 | 66 | 44 | 4.0 | 10.0 | 0.00 | 0.00 | 0.00 | 93 | 1016.0 |
| 20260905084511 | 66 | 51 | 5.0 | 10.0 | 0.00 | 0.00 | 0.00 | 93 | 1016.1 |
| 20260905083021 | 65 | 46 | 3.0 | 11.0 | 0.00 | 0.00 | 0.00 | 92 | 1016.1 |
| 20260905081527 | 66 | 55 | 3.0 | 7.0 | 0.00 | 0.00 | 0.00 | 92 | 1016.0 |
| 20260905080036 | 66 | 11 | 3.0 | 7.0 | 0.00 | 0.00 | 0.00 | 91 | 1016.2 |
| 20260905074518 | 66 | 63 | 3.0 | 9.0 | 0.00 | 0.00 | 0.00 | 91 | 1016.2 |
| 20260905073021 | 67 | 59 | 3.0 | 9.0 | 0.00 | 0.00 | 0.00 | 91 | 1016.4 |
| 20260905071516 | 67 | 64 | 3.0 | 10.0 | 0.00 | 0.00 | 0.00 | 90 | 1016.1 |
| 20260905070035 | 67 | 36 | 3.0 | 9.0 | 0.00 | 0.00 | 0.00 | 90 | 1016.3 |
| 20260905064518 | 67 | 78 | 3.0 | 7.0 | 0.00 | 0.00 | 0.00 | 89 | 1016.3 |
| 20260905063026 | 68 | 49 | 4.0 | 10.0 | 0.00 | 0.00 | 0.00 | 89 | 1016.3 |
| 20260905061528 | 68 | 93 | 1.0 | 6.0 | 0.00 | 0.00 | 0.00 | 88 | 1016.1 |
| 20260905060024 | 69 | 51 | 2.0 | 5.0 | 0.00 | 0.00 | 0.00 | 87 | 1016.1 |
| 20260905054519 | 69 | 44 | 3.0 | 9.0 | 0.00 | 0.00 | 0.00 | 87 | 1015.9 |
| 20260905053028 | 70 | 56 | 2.0 | 8.0 | 0.00 | 0.00 | 0.00 | 86 | 1016.0 |
| 20260905051537 | 70 | 57 | 3.0 | 10.0 | 0.00 | 0.00 | 0.00 | 85 | 1015.7 |
| 20260905050035 | 71 | 16 | 2.0 | 7.0 | 0.00 | 0.00 | 0.00 | 84 | 1015.6 |
| 20260905044532 | 71 | 56 | 5.0 | 13.0 | 0.00 | 0.00 | 0.00 | 84 | 1015.4 |
| 20260905043030 | 72 | 39 | 3.0 | 11.0 | 0.00 | 0.00 | 0.00 | 83 | 1015.7 |
| 20260905041526 | 72 | 57 | 6.0 | 11.0 | 0.00 | 0.00 | 0.00 | 82 | 1015.6 |
| 20260905040018 | 73 | 81 | 3.0 | 9.0 | 0.00 | 0.00 | 0.00 | 81 | 1015.6 |
| 20260905034527 | 73 | 74 | 3.0 | 10.0 | 0.00 | 0.00 | 0.00 | 80 | 1015.6 |
| 20260905033034 | 74 | 34 | 6.0 | 12.0 | 0.00 | 0.00 | 0.00 | 80 | 1015.7 |
| 20260905031533 | 74 | 67 | 3.0 | 13.0 | 0.00 | 0.00 | 0.00 | 80 | 1015.5 |
| 20260905030010 | 74 | 55 | 5.0 | 11.0 | 0.00 | 0.00 | 0.00 | 80 | 1015.3 |
| 20260905024527 | 75 | 51 | 5.0 | 13.0 | 0.00 | 0.00 | 0.00 | 81 | 1015.2 |
| 20260905023007 | 75 | 65 | 3.0 | 9.0 | 0.00 | 0.00 | 0.00 | 80 | 1015.0 |
| 20260905021512 | 75 | 42 | 4.0 | 12.0 | 0.00 | 0.00 | 0.00 | 80 | 1014.7 |
| 20260905020016 | 76 | 59 | 3.0 | 9.0 | 0.00 | 0.00 | 0.00 | 79 | 1014.6 |
| 20260905014516 | 77 | 49 | 3.0 | 7.0 | 0.00 | 0.00 | 0.00 | 78 | 1014.5 |
| 20260905013012 | 78 | 51 | 1.0 | 5.0 | 0.00 | 0.00 | 0.00 | 75 | 1014.4 |
| 20260905011505 | 79 | 22 | 2.0 | 5.0 | 0.00 | 0.00 | 0.00 | 74 | 1014.3 |
| 20260905010027 | 80 | 34 | 1.0 | 6.0 | 0.00 | 0.00 | 0.00 | 72 | 1014.3 |
| 20260905004537 | 82 | 36 | 3.0 | 10.0 | 0.00 | 0.00 | 0.00 | 71 | 1014.1 |
| 20260905003013 | 83 | 46 | 3.0 | 9.0 | 0.00 | 0.00 | 0.00 | 69 | 1014.1 |
| 20260905001539 | 85 | 34 | 2.0 | 8.0 | 0.00 | 0.00 | 0.00 | 67 | 1014.2 |
| 20260905000011 | 86 | 38 | 2.0 | 8.0 | 0.00 | 0.00 | 0.00 | 65 | 1013.8 |
| 20260904234514 | 86 | 23 | 3.0 | 7.0 | 0.00 | 0.00 | 0.00 | 64 | 1014.0 |
| 20260904233035 | 87 | 34 | 2.0 | 8.0 | 0.00 | 0.00 | 0.00 | 63 | 1014.0 |
| 20260904231528 | 87 | 303 | 2.0 | 9.0 | 0.00 | 0.00 | 0.00 | 62 | 1014.0 |
| 20260904230026 | 87 | 316 | 3.0 | 8.0 | 0.00 | 0.00 | 0.00 | 63 | 1013.8 |
| 20260904224508 | 88 | 57 | 3.0 | 9.0 | 0.00 | 0.00 | 0.00 | 62 | 1013.7 |
| 20260904223015 | 88 | 76 | 1.0 | 9.0 | 0.00 | 0.00 | 0.00 | 63 | 1013.5 |
| 20260904221511 | 88 | 19 | 4.0 | 8.0 | 0.00 | 0.00 | 0.00 | 63 | 1013.5 |
| 20260904220032 | 88 | 294 | 3.0 | 11.0 | 0.00 | 0.00 | 0.00 | 63 | 1013.2 |
| 20260904214508 | 88 | 38 | 5.0 | 11.0 | 0.00 | 0.00 | 0.00 | 67 | 1013.2 |
| 20260904213024 | 88 | 287 | 4.0 | 11.0 | 0.00 | 0.00 | 0.00 | 66 | 1013.1 |
| 20260904211525 | 88 | 28 | 4.0 | 12.0 | 0.00 | 0.00 | 0.00 | 66 | 1013.3 |
| 20260904210021 | 88 | 28 | 2.0 | 8.0 | 0.00 | 0.00 | 0.00 | 67 | 1013.3 |
| 20260904204512 | 88 | 30 | 4.0 | 9.0 | 0.00 | 0.00 | 0.00 | 69 | 1013.3 |
| 20260904203012 | 88 | 9 | 2.0 | 10.0 | 0.00 | 0.00 | 0.00 | 67 | 1013.3 |
| 20260904201527 | 87 | 41 | 4.0 | 11.0 | 0.00 | 0.00 | 0.00 | 70 | 1013.2 |
| 20260904200028 | 87 | 28 | 4.0 | 12.0 | 0.00 | 0.00 | 0.00 | 70 | 1013.2 |
| 20260904194517 | 85 | 17 | 4.0 | 12.0 | 0.00 | 0.00 | 0.00 | 71 | 1013.3 |
| 20260904193025 | 86 | 74 | 5.0 | 11.0 | 0.00 | 0.00 | 0.00 | 72 | 1013.4 |
| 20260904191520 | 86 | 346 | 4.0 | 13.0 | 0.00 | 0.00 | 0.00 | 73 | 1013.4 |
| 20260904190013 | 85 | 39 | 4.0 | 14.0 | 0.00 | 0.00 | 0.00 | 73 | 1013.2 |
| 20260904184517 | 85 | 338 | 4.0 | 13.0 | 0.00 | 0.00 | 0.00 | 73 | 1013.2 |
| 20260904183028 | 84 | 34 | 4.0 | 12.0 | 0.00 | 0.00 | 0.00 | 77 | 1013.2 |
| 20260904181534 | 83 | 329 | 5.0 | 13.0 | 0.00 | 0.00 | 0.00 | 77 | 1013.2 |
| 20260904180004 | 83 | 309 | 6.0 | 14.0 | 0.00 | 0.00 | 0.00 | 77 | 1013.3 |
| 20260904174506 | 83 | 344 | 6.0 | 13.0 | 0.00 | 0.01 | 0.00 | 78 | 1013.3 |
| 20260904173010 | 84 | 319 | 4.0 | 13.0 | 0.00 | 0.06 | 0.00 | 76 | 1013.2 |
| 20260904171512 | 85 | 329 | 6.0 | 16.0 | 0.00 | 0.06 | 0.00 | 77 | 1013.1 |
| 20260904170012 | 85 | 337 | 3.0 | 11.0 | 0.00 | 0.06 | 0.00 | 76 | 1012.8 |
| 20260904164508 | 85 | 32 | 5.0 | 12.0 | 0.00 | 0.09 | 0.00 | 76 | 1012.8 |
| 20260904163006 | 84 | 51 | 2.0 | 9.0 | 0.00 | 0.10 | 0.00 | 77 | 1012.7 |
| 20260904161510 | 83 | 325 | 3.0 | 7.0 | 0.00 | 0.10 | 0.00 | 79 | 1012.4 |
| 20260904160017 | 82 | 66 | 3.0 | 8.0 | 0.00 | 0.10 | 0.00 | 81 | 1012.4 |